This is the latest recevied weather packets stored in our database for station/object NC4M. If no packets are shown the sender has not sent any weather packets the latest 10 day(s).
| Time | Temp. | Humidity | Pressure | Rain* | Wind** | Luminosity | Snow |
|---|---|---|---|---|---|---|---|
| 1787705716 | 26.11° C | 77% | 1015.9 hPa | 0 mm | - | 1 W/m² | - |
| 1787705412 | 26.67° C | 77% | 1015.8 hPa | 0 mm | - | 1 W/m² | - |
| 1787705107 | 26.67° C | 76% | 1015.9 hPa | 0 mm | - | 2 W/m² | - |
| 1787704803 | 26.67° C | 75% | 1015.8 hPa | 0 mm | - | 4 W/m² | - |
| 1787704498 | 26.67° C | 75% | 1015.9 hPa | 0 mm | - | 5 W/m² | - |
| 1787704193 | 27.22° C | 75% | 1015.8 hPa | 0 mm | - | 8 W/m² | - |
| 1787703893 | 27.22° C | 75% | 1016 hPa | 0 mm | - | 11 W/m² | - |
| 1787703588 | 27.22° C | 74% | 1016 hPa | 0 mm | - | 15 W/m² | - |
| 1787703288 | 27.22° C | 74% | 1016.1 hPa | 0 mm | - | 17 W/m² | - |
| 1787702984 | 27.78° C | 73% | 1016 hPa | 0 mm | - | 19 W/m² | - |
| 1787702680 | 27.78° C | 73% | 1016.2 hPa | 0 mm | - | 22 W/m² | - |
| 1787702379 | 27.78° C | 73% | 1016.2 hPa | 0 mm | - | 27 W/m² | - |
| 1787702079 | 27.78° C | 72% | 1016.1 hPa | 0 mm | - | 26 W/m² | - |
| 1787701776 | 28.33° C | 71% | 1016.2 hPa | 0 mm | - | 29 W/m² | - |
| 1787701477 | 28.33° C | 71% | 1016.2 hPa | 0 mm | - | 44 W/m² | - |
| 1787701171 | 28.33° C | 72% | 1016.3 hPa | 0 mm | - | 66 W/m² | - |
| 1787700868 | 28.33° C | 71% | 1016.1 hPa | 0 mm | - | 49 W/m² | - |
| 1787700563 | 28.33° C | 69% | 1015.9 hPa | 0 mm | - | 44 W/m² | - |
| 1787700259 | 28.33° C | 69% | 1016 hPa | 0 mm | - | 44 W/m² | - |
| 1787699955 | 28.89° C | 68% | 1016.1 hPa | 0 mm | - | 48 W/m² | - |
| 1787699650 | 28.89° C | 69% | 1016.1 hPa | 0 mm | - | 53 W/m² | - |
| 1787699346 | 28.89° C | 68% | 1016 hPa | 0 mm | - | 55 W/m² | - |
| 1787699041 | 28.89° C | 67% | 1016 hPa | 0 mm | - | 59 W/m² | - |
| 1787698736 | 28.89° C | 67% | 1016 hPa | 0 mm | - | 58 W/m² | - |
| 1787698433 | 28.89° C | 68% | 1016 hPa | 0 mm | - | 58 W/m² | - |
* Rain latest hour (hover to see other rain measurements)
** Current wind speed in m/s (hover to see current wind gust speed)